Location: Unspecified
(42.3650°N, 71.1030°W)
Time: 14:58:24
(UTC+00:00)

Explorer 11/Cluster Stage 4 - Pass Details

Date: 24 June 2024
Orbit: 465 x 1215 km, 28.8° (Epoch: 22 July)

Event Time Altitude Azimuth Distance (km) Brightness Sun altitude
Rises 02:48:38 0° 251° (WSW) 4,125 10.4 -18.8°
Reaches altitude 10° 02:52:01 10° 241° (WSW) 3,145 9.6 -19.1°
Maximum altitude 02:58:28 28° 187° (S) 2,014 8.2 -19.6°
Enters shadow 02:59:00 28° 180° (S) 2,013 8.1 -19.7°
Drops below altitude 10° 03:04:25 10° 131° (SE) 2,879 - -20.1°
Sets 03:07:22 0° 120° (ESE) 3,721 - -20.3°
